Weather History for Fairfield, IA

Change the Weather History Date:

Sunday, November 24, 2013

  Actual Average Record
Temperature  
Mean Temperature 16 °F -  
Max Temperature 28 °F 44 °F 62 °F (1988)
Min Temperature 5 °F 26 °F 5 °F (2013)
Degree Days  
Heating Degree Days 48    
Moisture  
Dew Point 5 °F    
Average Humidity 59    
Maximum Humidity 85    
Minimum Humidity 31    
Precipitation  
Precipitation 0.00 in - - ()
Sea Level Pressure  
Sea Level Pressure 30.58 in    
Wind  
Wind Speed 7 mph (SSW)    
Max Wind Speed 17 mph    
Max Gust Speed 22 mph    
Visibility 10 miles    
Events Snow    
Averages and records for this station are not official NWS values.
T = Trace of Precipitation, MM = Missing Value Source: NWS Daily Summary

Daily Weather History Graph

Daily Weather History Graph

Search for Another Location

Airport:

Trip Planner

Search our weather history database for the weather conditions in past years. The results will help you decide how hot, cold, wet, or windy it might be!

Date:

Astronomy

Nov. 24, 2013 Rise Set
Actual Time 7:06 AM CST 4:42 PM CST
Civil Twilight 6:36 AM CST 5:13 PM CST
Nautical Twilight 6:02 AM CST 5:46 PM CST
Astronomical Twilight 5:29 AM CST 6:19 PM CST
Moon 11:10 PM CST (11/24) 11:52 AM CST (11/24)
Length of Visible Light 10h 36m
Length of Day
9h 36m
Waning Gibbous, 60% of the Moon is Illuminated
Nov 24
Waning Gibbous
Nov 25
Last Quarter
Dec 2
New
Dec 9
First Quarter
Dec 17
Full

Hourly Weather History & Observations

Time (CST) Temp. Windchill Dew Point Humidity Pressure Visibility Wind Dir Wind Speed Gust Speed Precip Events Conditions
12:15 AM 8.6 °F -3.7 °F 3.2 °F 79% 30.76 in 10.0 mi NW 8.1 mph - N/A   Clear
12:35 AM 8.6 °F -1.3 °F 3.2 °F 79% 30.75 in 10.0 mi NNW 5.8 mph - N/A   Clear
12:55 AM 8.6 °F -1.3 °F 3.2 °F 79% 30.74 in 10.0 mi NW 5.8 mph - N/A   Clear
1:15 AM 6.8 °F -3.5 °F 1.4 °F 79% 30.74 in 10.0 mi NW 5.8 mph - N/A   Clear
1:35 AM 6.8 °F -2.0 °F 1.4 °F 79% 30.74 in 10.0 mi NNW 4.6 mph - N/A   Clear
1:55 AM 6.8 °F - 1.4 °F 79% 30.75 in 10.0 mi Calm Calm - N/A   Clear
2:15 AM 6.8 °F -2.0 °F 1.4 °F 79% 30.74 in 10.0 mi NNW 4.6 mph - N/A   Clear
2:35 AM 6.8 °F -2.0 °F 1.4 °F 79% 30.74 in 10.0 mi NNW 4.6 mph - N/A   Clear
2:55 AM 6.8 °F - 1.4 °F 79% 30.74 in 10.0 mi Calm Calm - N/A Snow Light Snow
3:15 AM 6.8 °F - 1.4 °F 79% 30.74 in 10.0 mi Calm Calm - N/A   Clear
3:35 AM 6.8 °F -2.0 °F 1.4 °F 79% 30.74 in 10.0 mi WSW 4.6 mph - N/A   Clear
3:55 AM 6.8 °F -3.5 °F 1.4 °F 79% 30.73 in 10.0 mi West 5.8 mph - N/A   Clear
4:15 AM 6.8 °F - 1.4 °F 79% 30.73 in 10.0 mi Calm Calm - N/A   Clear
4:35 AM 6.8 °F -2.0 °F 1.4 °F 79% 30.73 in 10.0 mi WNW 4.6 mph - N/A   Clear
4:55 AM 6.8 °F -0.1 °F 1.4 °F 79% 30.73 in 10.0 mi West 3.5 mph - N/A   Clear
5:15 AM 6.8 °F -3.5 °F 1.4 °F 79% 30.73 in 10.0 mi WSW 5.8 mph - N/A   Clear
5:35 AM 6.8 °F -2.0 °F 1.4 °F 79% 30.73 in 10.0 mi WSW 4.6 mph - N/A   Clear
5:55 AM 5.0 °F -2.1 °F 1.4 °F 85% 30.72 in 10.0 mi SW 3.5 mph - N/A   Clear
6:15 AM 6.8 °F - 1.4 °F 79% 30.72 in 10.0 mi Calm Calm - N/A   Clear
6:35 AM 6.8 °F - 1.4 °F 79% 30.73 in 10.0 mi Calm Calm - N/A   Clear
6:55 AM 6.8 °F - 1.4 °F 79% 30.73 in 10.0 mi Calm Calm - N/A   Clear
7:15 AM 6.8 °F - 1.4 °F 79% 30.73 in 10.0 mi Calm Calm - N/A   Clear
7:35 AM 6.8 °F - 3.2 °F 85% 30.73 in 10.0 mi Calm Calm - N/A   Clear
7:55 AM 8.6 °F - 3.2 °F 79% 30.72 in 10.0 mi Calm Calm - N/A   Clear
8:15 AM 10.4 °F 4.0 °F 5.0 °F 79% 30.72 in 10.0 mi SSE 3.5 mph - N/A Snow Light Snow
8:35 AM 12.2 °F 4.3 °F 6.8 °F 79% 30.72 in 10.0 mi SSE 4.6 mph - N/A Snow Light Snow
8:55 AM 15.8 °F 8.6 °F 6.8 °F 68% 30.73 in 10.0 mi SSE 4.6 mph - N/A   Clear
9:15 AM 15.8 °F 4.2 °F 5.0 °F 62% 30.72 in 10.0 mi SSE 9.2 mph - N/A Snow Light Snow
9:35 AM 17.6 °F 5.7 °F 6.8 °F 63% 30.71 in 10.0 mi South 10.4 mph - N/A   Light Freezing Rain
9:55 AM 17.6 °F 5.7 °F 6.8 °F 63% 30.70 in 10.0 mi SSE 10.4 mph - N/A   Light Freezing Rain
10:15 AM 19.4 °F 7.9 °F 6.8 °F 58% 30.69 in 10.0 mi SSE 10.4 mph 16.1 mph N/A Snow Light Snow
10:35 AM 21.2 °F 10.1 °F 5.0 °F 50% 30.68 in 10.0 mi South 10.4 mph - N/A Snow Light Snow
10:55 AM 21.2 °F 10.1 °F 6.8 °F 54% 30.66 in 10.0 mi South 10.4 mph - N/A   Light Freezing Rain
11:15 AM 23.0 °F 13.1 °F 5.0 °F 46% 30.64 in 10.0 mi South 9.2 mph - N/A   Light Freezing Rain
11:35 AM 23.0 °F 11.7 °F 5.0 °F 46% 30.62 in 10.0 mi South 11.5 mph - N/A   Clear
11:55 AM 24.8 °F 13.4 °F 5.0 °F 43% 30.61 in 10.0 mi South 12.7 mph - N/A   Light Freezing Rain
12:15 PM 26.6 °F 15.7 °F 3.2 °F 37% 30.60 in 10.0 mi South 12.7 mph - N/A   Light Freezing Rain
12:35 PM 26.6 °F 16.2 °F 1.4 °F 34% 30.59 in 10.0 mi SSW 11.5 mph 17.3 mph N/A   Clear
12:55 PM 28.4 °F 19.1 °F 1.4 °F 31% 30.57 in 10.0 mi South 10.4 mph - N/A   Clear
1:15 PM 28.4 °F 18.0 °F 1.4 °F 31% 30.56 in 10.0 mi SSW 12.7 mph 19.6 mph N/A   Clear
1:35 PM 28.4 °F 18.5 °F 3.2 °F 34% 30.55 in 10.0 mi SSW 11.5 mph - N/A   Clear
1:55 PM 28.4 °F 18.0 °F 1.4 °F 31% 30.53 in 10.0 mi SSW 12.7 mph 18.4 mph N/A   Clear
2:15 PM 28.4 °F 17.5 °F 3.2 °F 34% 30.53 in 10.0 mi South 13.8 mph 20.7 mph N/A   Clear
2:35 PM 28.4 °F 18.5 °F 3.2 °F 34% 30.52 in 10.0 mi SSW 11.5 mph 19.6 mph N/A   Clear
2:55 PM 28.4 °F 18.0 °F 3.2 °F 34% 30.51 in 10.0 mi SSW 12.7 mph 18.4 mph N/A   Light Freezing Rain
3:15 PM 28.4 °F 17.5 °F 5.0 °F 37% 30.50 in 10.0 mi SSW 13.8 mph - N/A   Clear
3:35 PM 28.4 °F 17.5 °F 3.2 °F 34% 30.49 in 10.0 mi South 13.8 mph - N/A   Clear
3:55 PM 28.4 °F 18.5 °F 5.0 °F 37% 30.48 in 10.0 mi South 11.5 mph - N/A   Clear
4:15 PM 28.4 °F 18.0 °F 5.0 °F 37% 30.47 in 10.0 mi South 12.7 mph - N/A   Clear
4:35 PM 26.6 °F 16.8 °F 5.0 °F 40% 30.46 in 10.0 mi South 10.4 mph - N/A   Light Freezing Rain
4:55 PM 26.6 °F 16.8 °F 5.0 °F 40% 30.46 in 10.0 mi South 10.4 mph - N/A   Clear
5:15 PM 24.8 °F 14.0 °F 5.0 °F 43% 30.45 in 10.0 mi South 11.5 mph - N/A   Clear
5:35 PM 24.8 °F 14.6 °F 6.8 °F 46% 30.45 in 10.0 mi South 10.4 mph - N/A   Clear
5:55 PM 24.8 °F 14.6 °F 6.8 °F 46% 30.44 in 10.0 mi South 10.4 mph - N/A   Clear
6:15 PM 23.0 °F 13.9 °F 6.8 °F 50% 30.44 in 10.0 mi South 8.1 mph - N/A   Clear
6:35 PM 23.0 °F 13.1 °F 6.8 °F 50% 30.43 in 10.0 mi South 9.2 mph - N/A   Clear
6:55 PM 23.0 °F 13.1 °F 6.8 °F 50% 30.43 in 10.0 mi South 9.2 mph - N/A   Clear
7:15 PM 23.0 °F 13.1 °F 8.6 °F 54% 30.43 in 10.0 mi South 9.2 mph - N/A   Clear
7:35 PM 23.0 °F 12.4 °F 8.6 °F 54% 30.42 in 10.0 mi South 10.4 mph - N/A   Clear
7:55 PM 23.0 °F 12.4 °F 8.6 °F 54% 30.41 in 10.0 mi South 10.4 mph - N/A   Clear
8:15 PM 23.0 °F 11.7 °F 8.6 °F 54% 30.40 in 10.0 mi South 11.5 mph - N/A   Clear
8:35 PM 23.0 °F 12.4 °F 8.6 °F 54% 30.40 in 10.0 mi South 10.4 mph - N/A   Clear
8:55 PM 21.2 °F 10.9 °F 8.6 °F 58% 30.39 in 10.0 mi South 9.2 mph - N/A   Clear
9:15 PM 21.2 °F 10.9 °F 8.6 °F 58% 30.38 in 10.0 mi South 9.2 mph - N/A   Partly Cloudy
9:35 PM 21.2 °F 10.1 °F 8.6 °F 58% 30.37 in 10.0 mi South 10.4 mph - N/A   Mostly Cloudy
9:55 PM 23.0 °F 11.7 °F 8.6 °F 54% 30.36 in 10.0 mi South 11.5 mph - N/A   Mostly Cloudy
10:15 PM 23.0 °F 13.1 °F 10.4 °F 59% 30.35 in 10.0 mi South 9.2 mph - N/A   Mostly Cloudy
10:35 PM 24.8 °F 14.0 °F 10.4 °F 54% 30.34 in 10.0 mi South 11.5 mph - N/A   Overcast
10:55 PM 24.8 °F 14.0 °F 10.4 °F 54% 30.33 in 10.0 mi South 11.5 mph - N/A   Overcast
11:15 PM 24.8 °F 12.9 °F 8.6 °F 50% 30.33 in 10.0 mi South 13.8 mph 21.9 mph N/A   Overcast
11:35 PM 24.8 °F 11.5 °F 10.4 °F 54% 30.32 in 10.0 mi SSW 17.3 mph - N/A   Overcast
11:55 PM 24.8 °F 11.5 °F 10.4 °F 54% 30.32 in 10.0 mi SSW 17.3 mph - N/A   Overcast